Location: Richmond
(37.5536°N, 77.4606°W)
Time: 06:26:44
(UTC-04:00)

ISS - Visible Passes

Search period start: 26 September 2016 00:00
Search period end: 06 October 2016 00:00
Orbit: 401 x 409 km, 51.6° (Epoch: 26 September)

Date Brightness Start Highest point End Pass type
(mag) Time Alt. Az. Time Alt. Az. Time Alt. Az.
26 Sep -0.8 20:48:54 10° SSW 20:49:30 15° SSW 20:49:30 15° SSW visible
27 Sep -2.2 19:57:24 10° S 20:00:05 24° SE 20:00:32 23° ESE visible
28 Sep -2.7 20:41:06 10° WSW 20:44:04 55° WNW 20:44:04 55° WNW visible
29 Sep -3.4 19:48:59 10° SW 19:52:12 68° SE 19:54:39 16° ENE visible
29 Sep 0.1 21:26:46 10° WNW 21:27:21 13° WNW 21:27:21 13° WNW visible
30 Sep -1.4 20:33:54 10° W 20:36:41 25° NNW 20:37:45 21° N visible
01 Oct -2.3 19:41:18 10° WSW 19:44:26 44° NW 19:47:35 10° NE visible
02 Oct -0.6 20:27:13 10° WNW 20:29:09 15° NNW 20:30:46 11° N visible
03 Oct -1.1 19:34:10 10° W 19:36:46 22° NNW 19:39:23 10° NNE visible
05 Oct -0.6 19:27:36 10° NW 19:29:13 13° NNW 19:30:50 10° N visible
